Location: N�rnberg
(49.4471°N, 11.0632°E)
Time: 06:33:04
(UTC+02:00)

METEOR M2 - Visible Passes

Search period start: 21 April 2026 00:00
Search period end: 01 May 2026 00:00
Orbit: 817 x 824 km, 98.5° (Epoch: 20 April)

Date Brightness Start Highest point End Pass type
(mag) Time Alt. Az. Time Alt. Az. Time Alt. Az.
21 Apr ? 04:00:00 10° ENE 04:01:49 12° E 04:03:39 10° ESE visible
22 Apr ? 05:16:55 10° NNE 05:22:09 51° E 05:27:20 10° S visible
23 Apr ? 04:56:27 10° NNE 05:01:21 35° E 05:06:12 10° SSE visible
24 Apr ? 04:36:11 10° NE 04:40:30 24° E 04:44:47 10° SE visible
25 Apr ? 04:16:12 10° NE 04:19:35 17° E 04:22:55 10° SE visible
26 Apr ? 03:57:11 10° ENE 03:58:34 11° E 03:59:58 10° E visible
27 Apr ? 05:13:44 10° NNE 05:18:56 48° E 05:24:05 10° S visible
28 Apr ? 04:53:18 10° NNE 04:58:08 33° E 05:02:55 10° SSE visible
29 Apr ? 04:33:02 10° NE 04:37:15 23° E 04:41:27 10° SE visible
30 Apr ? 04:13:08 10° NE 04:16:19 16° E 04:19:29 10° SE visible
